Regional Weather Roundup
Issued by NWS

Home | Current Version | Previous Version | Text Only | Print | Product List | Glossary Off
Versions: 1 2 3 4 5 6 7 8 9 10 11 12 13 14 15 16 17 18 19 20 21 22 23 24 25 26 27 28 29 30 31 32 33 34 35 36 37 38 39 40 41 42 43 44 45 46 47 48 49 50

083
ASUS44 KJAN 261610
RWRMS

MISSISSIPPI HOURLY WEATHER ROUNDUP
NATIONAL WEATHER SERVICE JACKSON MS
1000 AM CST THU FEB 26 2015

NOTE: "FAIR: INDICATES FEW OR NO CLOUDS BELOW 12,000 FEET WITH NO
SIGNIFICANT WEATHER AND/OR OBSTRUCTIONS TO VISIBILITY.

MSZ001>002-007>008-010>013-018>021-025>028-034>036-261700-
NORTHWEST MISSISSIPPI

CITY           SKY/WX    TMP DP  RH WIND       PRES   REMARKS
CLARKSDALE     CLOUDY    28  28 100 CALM      30.14R
CLEVELAND      CLOUDY    30  30 100 W7        30.13R FOG     WCI  23
GREENWOOD      CLOUDY    30  29  96 CALM      30.12R FOG
GREENVILLE     CLOUDY    32  29  88 NW7       30.14R FOG     WCI  26
OLIVE BRANCH   MOSUNNY   32  32 100 NW6       30.09R FOG     WCI  26
OXFORD         CLOUDY    30  28  93 NW6       30.10R FOG     WCI  24
TUNICA         CLOUDY    32  30  93 W5        30.13R FOG     WCI  27
$$

MSZ003>006-009-014>017-022>024-029>033-037>039-261700-
NORTHEAST MISSISSIPPI

CITY           SKY/WX    TMP DP  RH WIND       PRES   REMARKS
COLUMBUS AFB   CLOUDY    32  28  86 NW8       30.08R WCI  25
CORINTH        FAIR      34  28  80 NW5       30.06R WCI  30
GOLDN TRIANGLE CLOUDY    32  28  86 NW6       30.07R WCI  26
STARKVILLE     FAIR      34  32  93 NW5       30.08R WCI  30
TUPELO         CLOUDY    31  27  85 N7        30.08R WCI  24
$$

MSZ040-058-261700-
CENTRAL MISSISSIPPI

CITY           SKY/WX    TMP DP  RH WIND       PRES   REMARKS
JACKSON INTL   CLOUDY    36  31  82 NW8       30.11R WCI  30
JACKSON HAWKNS CLOUDY    35  30  82 NW8       30.12R WCI  29
MERIDIAN KEY   CLOUDY    38  32  79 NW9       30.08R WCI  31
MERIDIAN NAS   CLOUDY    36  31  82 NW10      30.08R WCI  28
VICKSBURG      CLOUDY    35  31  85 N6        30.16R WCI  30
$$

MSZ059>079-261700-
SOUTH MISSISSIPPI

CITY           SKY/WX    TMP DP  RH WIND       PRES   REMARKS
BROOKHAVEN     CLOUDY    34  34 100 NW8       30.11S WCI  27
HATTIESBURG    CLOUDY    39  34  82 N9        30.09R WCI  33
MCCOMB         CLOUDY    36  31  82 N13       30.09R WCI  27
NATCHEZ        CLOUDY    34  30  86 N9        30.14R WCI  26
PINE BELT      CLOUDY    37  30  75 N12       30.09R WCI  30
$$

MSZ080>082-261700-
COASTAL MISSISSIPPI

CITY           SKY/WX    TMP DP  RH WIND       PRES   REMARKS
BAY ST LOUIS   CLOUDY    39  32  75 N12G17    30.08R WCI  32
BILOXI         CLOUDY    41  36  81 N15       30.05R
PASCAGOULA     CLOUDY    41  34  76 N13       30.05R
GULFPORT       CLOUDY    41  34  76 NW16      30.06R
$$



USA.gov is the U.S. government's official web portal to all federal, state and local government web resources and services.